Terug naar catalogus

YINHE 2-06

ActiefCommunicatieLEO
NORAD 51951·PAYLOAD·🇨🇳 China
Deze satellietnaam is nog niet bevestigd door officiële bronnen.

Gelanceerd Mar 5, 2022 vanaf Xichang Satellite Launch Center

Loading…

Volgende Passages (komende 24 uur)

TLE

VersSource: Space-Track

Epoch: Sep 14, 2026, 14:35 UTC

1 51951U 22023F   26257.60827433  .00012354  00000-0  48459-3 0  9993
2 51951  63.4529 329.5147 0135279 341.8205  17.8094 15.17971003251284

Volg YINHE 2-06 in realtime met AllMySat

Download on the App Store